www.pogodaiklimat.ru
ПОГОДА в Тилламуке
Время
и дата
15:35 27.05
15:55 27.05
16:15 27.05
16:35 27.05
16:55 27.05
17:15 27.05
17:35 27.05
17:55 27.05
18:15 27.05
18:35 27.05
18:55 27.05
19:15 27.05
19:35 27.05
19:55 27.05
20:15 27.05
20:35 27.05
20:55 27.05
21:15 27.05
21:35 27.05
21:55 27.05
22:15 27.05
22:35 27.05
22:55 27.05
23:15 27.05
23:35 27.05
23:55 27.05
00:15 28.05
00:35 28.05
00:55 28.05
01:15 28.05
01:35 28.05
01:55 28.05
02:15 28.05
02:35 28.05
02:55 28.05
03:15 28.05
03:35 28.05
03:55 28.05
04:15 28.05
04:35 28.05
04:55 28.05
05:15 28.05
05:35 28.05
05:55 28.05
06:15 28.05
06:35 28.05
06:55 28.05
07:15 28.05
Ветер
(напр.,м/с)
Видим. Явления Облачность Т
(С)
Тd
(С)
f
(%)
Тe
(С)
Тes
(С)
Комфортность P
(гПа)
Po
(гПа)
Тmin
(С)
Tmax
(С)
R
(мм)
R24
(мм)
S
(см)
СЗ 5 16 км ясно +16.0 +16.0 100 +15 +22 1019.2
СЗ 5 16 км ясно +16.0 +16.0 100 +15 +22 1019.2
СЗ 5 16 км ясно +15.0 +15.0 100 +13 +18 1019.2
С 5 16 км ясно +16.0 +16.0 100 +15 +19 1018.9
СЗ 4 16 км ясно +15.0 +15.0 100 +14 +20 1018.9
СЗ 5 16 км ясно +15.0 +15.0 100 +13 +16 1018.9
СЗ 4 16 км ясно +15.0 +15.0 100 +14 +17 1018.9
СЗ 3 16 км ясно +15.0 +15.0 100 +14 +18 1018.9
СЗ 4 16 км ясно +15.0 +15.0 100 +14 +15 1018.9
СЗ 4 16 км ясно +14.0 +14.0 100 +12 +14 1018.9
СЗ 3 16 км ясно +13.0 +13.0 100 +11 +13 1018.9
СЗ 3 16 км ясно +13.0 +13.0 100 +11 +12 1018.9
СЗ 2 16 км ясно +13.0 +13.0 100 +12 +12 1018.9
штиль 0 16 км ясно +13.0 +13.0 100 +12 +13 1018.9
штиль 0 16 км ясно +12.0 +12.0 100 +11 +11 1018.9
Ю 2 16 км ясно +12.0 +12.0 100 +11 +11 1018.9
Ю 2 16 км 8/8 390 м +12.0 +12.0 100 +11 +11 1019.2
штиль 0 16 км 8/8 390 м +11.0 +11.0 100 +10 +10 1019.2
Ю 2 16 км 10/10 360 м +11.0 +11.0 100 +10 +10 1019.2
Ю 2 16 км 10/10 360 м +11.0 +11.0 100 +10 +10 1018.9
Ю 2 16 км 10/10 360 м +11.0 +11.0 100 +10 +10 1018.9
Ю 2 16 км 10/10 390 м +11.0 +11.0 100 +10 +10 1019.2
Ю 2 16 км 10/10 420 м +11.0 +11.0 100 +10 +10 1019.2
Ю 2 16 км 10/10 420 м +11.0 +11.0 100 +10 +10 1019.2
ЮВ 2 16 км 10/10 420 м +11.0 +11.0 100 +10 +10 1018.9
штиль 0 16 км 8/8 510 м +11.0 +11.0 100 +10 +10 1018.9
ЮВ 2 11 км 8/8 480 м +10.0 +10.0 100 +8 +8 1018.9
штиль 0 16 км 2/2 510 м +10.0 +10.0 100 +9 +9 1018.5
Ю 2 16 км ясно +9.0 +9.0 100 +7 +7 1018.5
Ю 2 16 км 2/2 480 м +9.0 +9.0 100 +7 +7 1018.5
ЮВ 2 16 км 5/5 480 м +9.0 +9.0 100 +7 +7 1018.5
Ю 2 16 км 10/10 480 м +9.0 +9.0 100 +7 +7 1018.5
ЮВ 2 16 км 5/5 540 м +9.0 +9.0 100 +7 +7 1018.9
ЮВ 2 16 км 8/8 540 м +9.0 +9.0 100 +7 +7 1018.9
ЮВ 3 16 км 2/2 570 м +9.0 +9.0 100 +6 +6 1018.5
штиль 0 16 км 5/2 1470 m
[Ac]
+9.0 +9.0 100 +8 +8 1018.5
штиль 0 3 км дымка 8/8 210 м +9.0 +9.0 100 +8 +8 1018.9
Ю 2 16 км 8/8 180 m
[Ac]
+9.0 +9.0 100 +7 +7 1018.9
ЮВ 2 16 км 8/8 210 m
[Ac]
+9.0 +9.0 100 +7 +7 1018.5
штиль 0 16 км 10/8 240 m
[Ac]
+9.0 +9.0 100 +8 +8 1018.5
штиль 0 16 км 10/8 750 m
[Ac]
+10.0 +10.0 100 +9 +9 1018.9
штиль 0 16 км 10/10 570 м +10.0 +10.0 100 +9 +9 1019.2
ЮВ 2 14 км 10/10 540 м +10.0 +10.0 100 +8 +8 1019.2
штиль 0 16 км 10/10 870 м +10.0 +10.0 100 +9 +9 1019.2
штиль 0 14 км слабый дождь 10/10 510 m
[Ns]
+10.0 +10.0 100 +9 +9 1019.5
штиль 0 16 км слабый дождь 10/10 510 m
[Ns]
+11.0 +11.0 100 +10 +10 1019.5
штиль 0 16 км 10/5 540 m
[Ac]
+11.0 +11.0 100 +10 +10 1019.5
штиль 0 14 км 10/8 570 m
[Ac]
+12.0 +12.0 100 +11 +12 1019.5
Местоположение метеостанции Tillamook Airport: широта 45.4181 долгота -123.8144 высота над уровнем моря 11 м.
В архиве по умолчанию представлена погода в Тилламуке за последние 1-2 суток. Обновление информации о фактической погоде в базе происходит ежечасно! Архивные данные за месяц целиком и за предыдущие месяцы Вы можете получить, выбрав интересующий диапазон дат из раскрывающегося списка и нажав кнопку "Ввод!".
Внимание! Архив погоды МЕТАР в базе сайта по станциям, не включенным в климатический монитор, хранится не более 60 дней. Нет смысла пытаться выбрать более раннюю дату.
*Определитесь, кто Вы:
Внимание! Время в таблицах - местное (без учета летнего времени). Для получения всемирного времени необходимо вычесть поправку, которая равна -8 ч.
Смотрите также архив погоды в соседних городах и на ближайших метеорологических станциях:
Партнеры нашего сайта:      
Пояснения к столбцам:
  • Ветер - указаны скорость ветра в м/с - средняя за 10 мин, порывы в срок и между сроками (в фигурных скобках) и направление, откуда дует ветер: С - северный,
  • СВ - северо-восточный, В - восточный, ЮВ - юго-восточный, Ю - южный, ЮЗ - юго-западный, З - западный, СЗ - северо-западный.
  • Видимость - горизонтальная дальность видимости в метрах или километрах. При видимости от 1 до 10 км при отсутствии осадков обычно наблюдается дымка, при ухудшении видимости до 1 км и менее - туман. В сухую погоду видимость может ухудшаться дымом, пылью или мглою.
  • Явления - указаны атмосферные явления, наблюдавшиеся в срок или в последний час перед сроком; фигурными скобками обозначены явления, наблюдавшиеся между сроками (за 1-3 часа до срока); квадратными скобками обозначены град или гололедные отложения с указанием их диаметра в мм.
  • Облачность - указаны через наклонную черту общая и нижняя облачность в баллах и высота нижней границы облаков в метрах; квадратными скобками обозначены формы облаков: Ci - перистые, Cs - перисто-слоистые, Cc - перисто-кучевые, Ac - высококучевые, As - высокослоистые, Sc - слоисто-кучевые, Ns - слоисто-дождевые, Cu - кучевые, Cb - кучево-дождевые. Подробнее классификацию облаков см. в Атласе облаков (PDF).
  • T - Температура воздуха - температура, измеренная на высоте 2 м над землей.
  • Td - Температура точки росы - температура, при понижении до которой содержащийся в воздухе водяной пар достигнет насыщения.
  • f - Относительная влажность воздуха - влажноcть воздуха, измеренная на высоте 2 м над землей.
  • Te - Эффективная температура - температура, которую ощущает одетый по сезону человек в тени. Характеристика душности погоды. При расчете учитывается влияние влажности воздуха и скорости ветра на теплоощущения человека.
  • Tes - Эффективная температура на солнце - температура, которую ощущает человек, с поправкой на солнечный нагрев. Характеристика знойности погоды. Зависит от высоты солнца над горизонтом, облачности и скорости ветра. Ночью, в пасмурную погоду, а также при ветре 12 м/с и более поправка равна нулю.
  • P - Атмосферное давление - приведенное к уровню моря атмосферное давление.
  • Po - Атмосферное давление - измеренное на уровне метеостанции атмосферное давление.
  • Tmin - Минимальная температура - минимум температуры воздуха на высоте 2 м над землей.
  • Tmax - Максимальная температура - максимум температуры воздуха на высоте 2 м над землей.
  • R - Количество осадков - Количество выпавших осадков за период времени, мм. При наведении курсора мыши на число - период времени, за который выпало указанное количество осадков.
  • R24 - Количество осадков - Количество выпавших осадков за 24 часа, мм.
  • S - Снежный покров - Высота снежного покрова, см. При наведении курсора мыши на число - состояние снежного покрова и степень покрытия местности в баллах.